Вернуться в каталог

THORAD AGENA D DEB

АктивенPO
NORAD 4868·DEBRIS·🇺🇸 United States

Запущен Apr 8, 1970 с Vandenberg Space Force Base

Loading…

Ближайшие Пролёты (ближайшие 24 часа)

TLE

СвежийSource: Space-Track

Эпоха: Sep 13, 2026, 17:06 UTC

1 04868U 70025EY  26256.71313780  .00001041  00000-0  70995-3 0  9990
2 04868  99.7161 334.5653 0056101 179.9977 180.1195 14.01631422847617

Отслеживайте THORAD AGENA D DEB в реальном времени с AllMySat

Download on the App Store